Wetterdaten: aktuell Dienstag, 16.08.2022 07:10
Datum Zeit Temp. A. Temp. A. min Temp. A. max Feuchte A. Luftdruck Regen Wind Richtung Richtung Sonnenschein UV Solar Windben
16.08.2022 07:10 19,2 C 19,2 C 19,2 C 81 % 1008,3 hPa 0,0 l/m 4,8 km/h (1 Bft) S-SO 157 0 min 0,0 UV-I 21 W/m 8,0 km/h (2 Bft)
16.08.2022 07:05 19,2 C 19,2 C 19,2 C 81 % 1008,4 hPa 0,0 l/m 4,8 km/h (1 Bft) S-SO 157 0 min 0,0 UV-I 19 W/m 9,7 km/h (2 Bft)
16.08.2022 07:00 19,2 C 19,2 C 19,2 C 81 % 1008,3 hPa 0,0 l/m 4,8 km/h (1 Bft) S-SO 157 0 min 0,0 UV-I 18 W/m 9,7 km/h (2 Bft)
16.08.2022 06:55 19,2 C 19,2 C 19,2 C 81 % 1008,2 hPa 0,0 l/m 6,4 km/h (2 Bft) S-SO 157 0 min 0,0 UV-I 14 W/m 12,9 km/h (3 Bft)
16.08.2022 06:50 19,2 C 19,2 C 19,2 C 81 % 1008,2 hPa 0,0 l/m 8,0 km/h (2 Bft) S-SO 157 0 min 0,0 UV-I 14 W/m 12,9 km/h (3 Bft)
16.08.2022 06:45 19,2 C 19,2 C 19,2 C 81 % 1008,2 hPa 0,0 l/m 6,4 km/h (2 Bft) S-SO 157 0 min 0,0 UV-I 12 W/m 11,3 km/h (2 Bft)
16.08.2022 06:40 19,2 C 19,2 C 19,2 C 81 % 1008,1 hPa 0,0 l/m 6,4 km/h (2 Bft) S-SO 157 0 min 0,0 UV-I 9 W/m 11,3 km/h (2 Bft)
16.08.2022 06:35 19,2 C 19,2 C 19,3 C 81 % 1008,1 hPa 0,0 l/m 6,4 km/h (2 Bft) S-SO 157 0 min 0,0 UV-I 7 W/m 9,7 km/h (2 Bft)
16.08.2022 06:30 19,3 C 19,2 C 19,3 C 81 % 1008,2 hPa 0,0 l/m 4,8 km/h (1 Bft) S-SO 157 0 min 0,0 UV-I 5 W/m 9,7 km/h (2 Bft)
16.08.2022 06:25 19,3 C 19,3 C 19,3 C 81 % 1008,1 hPa 0,0 l/m 4,8 km/h (1 Bft) S-SO 157 0 min 0,0 UV-I 0 W/m 11,3 km/h (2 Bft)
16.08.2022 06:20 19,3 C 19,3 C 19,4 C 80 % 1007,9 hPa 0,0 l/m 6,4 km/h (2 Bft) S-SO 157 0 min 0,0 UV-I 0 W/m 9,7 km/h (2 Bft)
16.08.2022 06:15 19,4 C 19,4 C 19,4 C 80 % 1007,9 hPa 0,0 l/m 4,8 km/h (1 Bft) S-SO 157 0 min 0,0 UV-I 0 W/m 9,7 km/h (2 Bft)
16.08.2022 06:10 19,5 C 19,4 C 19,6 C 80 % 1007,8 hPa 0,0 l/m 4,8 km/h (1 Bft) S-SO 157 0 min 0,0 UV-I 0 W/m 9,7 km/h (2 Bft)
16.08.2022 06:05 19,5 C 19,5 C 19,6 C 80 % 1007,9 hPa 0,0 l/m 4,8 km/h (1 Bft) S-SO 157 0 min 0,0 UV-I 0 W/m 9,7 km/h (2 Bft)
16.08.2022 06:00 19,6 C 19,6 C 19,7 C 80 % 1007,7 hPa 0,0 l/m 4,8 km/h (1 Bft) S-SO 157 0 min 0,0 UV-I 0 W/m 9,7 km/h (2 Bft)
16.08.2022 05:55 19,6 C 19,6 C 19,7 C 79 % 1007,8 hPa 0,0 l/m 4,8 km/h (1 Bft) S-SO 157 0 min 0,0 UV-I 0 W/m 11,3 km/h (2 Bft)
16.08.2022 05:50 19,7 C 19,7 C 19,8 C 79 % 1007,8 hPa 0,0 l/m 6,4 km/h (2 Bft) S-SO 157 0 min 0,0 UV-I 0 W/m 11,3 km/h (2 Bft)
16.08.2022 05:45 19,8 C 19,8 C 19,8 C 79 % 1007,7 hPa 0,0 l/m 4,8 km/h (1 Bft) S-SO 157 0 min 0,0 UV-I 0 W/m 9,7 km/h (2 Bft)
16.08.2022 05:40 19,8 C 19,8 C 19,9 C 79 % 1007,7 hPa 0,0 l/m 3,2 km/h (1 Bft) S-SO 157 0 min 0,0 UV-I 0 W/m 9,7 km/h (2 Bft)
16.08.2022 05:35 19,9 C 19,8 C 19,9 C 78 % 1007,7 hPa 0,0 l/m 3,2 km/h (1 Bft) S-SO 157 0 min 0,0 UV-I 0 W/m 8,0 km/h (2 Bft)
16.08.2022 05:30 19,9 C 19,9 C 19,9 C 78 % 1007,7 hPa 0,0 l/m 4,8 km/h (1 Bft) S-SO 157 0 min 0,0 UV-I 0 W/m 9,7 km/h (2 Bft)
16.08.2022 05:25 19,9 C 19,9 C 20,1 C 77 % 1007,7 hPa 0,0 l/m 4,8 km/h (1 Bft) S-SO 157 0 min 0,0 UV-I 0 W/m 8,0 km/h (2 Bft)
16.08.2022 05:20 20,1 C 20,0 C 20,1 C 77 % 1007,7 hPa 0,0 l/m 3,2 km/h (1 Bft) S-SO 157 0 min 0,0 UV-I 0 W/m 8,0 km/h (2 Bft)
16.08.2022 05:15 20,1 C 20,1 C 20,2 C 77 % 1007,7 hPa 0,0 l/m 4,8 km/h (1 Bft) S-SO 157 0 min 0,0 UV-I 0 W/m 8,0 km/h (2 Bft)
16.08.2022 05:10 20,2 C 20,2 C 20,2 C 77 % 1007,6 hPa 0,0 l/m 3,2 km/h (1 Bft) S-SO 157 0 min 0,0 UV-I 0 W/m 9,7 km/h (2 Bft)
16.08.2022 05:05 20,2 C 20,2 C 20,2 C 76 % 1007,6 hPa 0,0 l/m 3,2 km/h (1 Bft) S-SO 157 0 min 0,0 UV-I 0 W/m 9,7 km/h (2 Bft)
16.08.2022 05:00 20,2 C 20,2 C 20,3 C 76 % 1007,6 hPa 0,0 l/m 6,4 km/h (2 Bft) S-SO 157 0 min 0,0 UV-I 0 W/m 9,7 km/h (2 Bft)
16.08.2022 04:55 20,3 C 20,3 C 20,4 C 76 % 1007,6 hPa 0,0 l/m 3,2 km/h (1 Bft) S-SO 157 0 min 0,0 UV-I 0 W/m 9,7 km/h (2 Bft)
16.08.2022 04:50 20,4 C 20,3 C 20,4 C 75 % 1007,6 hPa 0,0 l/m 0,0 km/h (0 Bft) S 180 0 min 0,0 UV-I 0 W/m 3,2 km/h (1 Bft)
16.08.2022 04:45 20,4 C 20,4 C 20,5 C 75 % 1007,7 hPa 0,0 l/m 4,8 km/h (1 Bft) S 180 0 min 0,0 UV-I 0 W/m 8,0 km/h (2 Bft)
16.08.2022 04:40 20,4 C 20,4 C 20,6 C 75 % 1007,6 hPa 0,0 l/m 4,8 km/h (1 Bft) S 180 0 min 0,0 UV-I 0 W/m 9,7 km/h (2 Bft)
16.08.2022 04:35 20,5 C 20,5 C 20,6 C 75 % 1007,6 hPa 0,0 l/m 6,4 km/h (2 Bft) S 180 0 min 0,0 UV-I 0 W/m 12,9 km/h (3 Bft)
16.08.2022 04:30 20,6 C 20,6 C 20,7 C 75 % 1007,7 hPa 0,0 l/m 4,8 km/h (1 Bft) S 180 0 min 0,0 UV-I 0 W/m 11,3 km/h (2 Bft)
16.08.2022 04:25 20,6 C 20,6 C 20,7 C 75 % 1007,8 hPa 0,0 l/m 4,8 km/h (1 Bft) S 180 0 min 0,0 UV-I 0 W/m 9,7 km/h (2 Bft)
16.08.2022 04:20 20,7 C 20,7 C 20,8 C 75 % 1007,8 hPa 0,0 l/m 3,2 km/h (1 Bft) S-SO 157 0 min 0,0 UV-I 0 W/m 8,0 km/h (2 Bft)
16.08.2022 04:15 20,8 C 20,8 C 20,8 C 75 % 1007,8 hPa 0,0 l/m 4,8 km/h (1 Bft) S 180 0 min 0,0 UV-I 0 W/m 9,7 km/h (2 Bft)
16.08.2022 04:10 20,8 C 20,8 C 20,9 C 75 % 1007,7 hPa 0,0 l/m 3,2 km/h (1 Bft) S 180 0 min 0,0 UV-I 0 W/m 9,7 km/h (2 Bft)
16.08.2022 04:05 20,9 C 20,9 C 21,0 C 75 % 1007,8 hPa 0,0 l/m 3,2 km/h (1 Bft) S 180 0 min 0,0 UV-I 0 W/m 11,3 km/h (2 Bft)
16.08.2022 04:00 20,9 C 20,9 C 21,0 C 75 % 1007,7 hPa 0,0 l/m 4,8 km/h (1 Bft) S 180 0 min 0,0 UV-I 0 W/m 11,3 km/h (2 Bft)
16.08.2022 03:55 21,0 C 21,0 C 21,1 C 74 % 1007,6 hPa 0,0 l/m 4,8 km/h (1 Bft) S 180 0 min 0,0 UV-I 0 W/m 9,7 km/h (2 Bft)
16.08.2022 03:50 21,1 C 21,1 C 21,2 C 74 % 1007,6 hPa 0,0 l/m 4,8 km/h (1 Bft) S-SO 157 0 min 0,0 UV-I 0 W/m 9,7 km/h (2 Bft)
16.08.2022 03:45 21,2 C 21,2 C 21,2 C 74 % 1007,6 hPa 0,0 l/m 4,8 km/h (1 Bft) S 180 0 min 0,0 UV-I 0 W/m 9,7 km/h (2 Bft)
16.08.2022 03:40 21,2 C 21,2 C 21,3 C 74 % 1007,6 hPa 0,0 l/m 6,4 km/h (2 Bft) S 180 0 min 0,0 UV-I 0 W/m 11,3 km/h (2 Bft)
16.08.2022 03:35 21,3 C 21,2 C 21,3 C 74 % 1007,6 hPa 0,0 l/m 4,8 km/h (1 Bft) S 180 0 min 0,0 UV-I 0 W/m 9,7 km/h (2 Bft)
16.08.2022 03:30 21,3 C 21,2 C 21,3 C 74 % 1007,7 hPa 0,0 l/m 3,2 km/h (1 Bft) S 180 0 min 0,0 UV-I 0 W/m 9,7 km/h (2 Bft)
16.08.2022 03:25 21,3 C 21,3 C 21,3 C 74 % 1007,6 hPa 0,0 l/m 4,8 km/h (1 Bft) S 180 0 min 0,0 UV-I 0 W/m 8,0 km/h (2 Bft)
16.08.2022 03:20 21,3 C 21,3 C 21,3 C 74 % 1007,6 hPa 0,0 l/m 4,8 km/h (1 Bft) S 180 0 min 0,0 UV-I 0 W/m 9,7 km/h (2 Bft)
16.08.2022 03:15 21,3 C 21,3 C 21,3 C 74 % 1007,6 hPa 0,0 l/m 4,8 km/h (1 Bft) S-SO 157 0 min 0,0 UV-I 0 W/m 11,3 km/h (2 Bft)
16.08.2022 03:10 21,3 C 21,2 C 21,3 C 74 % 1007,6 hPa 0,0 l/m 3,2 km/h (1 Bft) S-SO 157 0 min 0,0 UV-I 0 W/m 8,0 km/h (2 Bft)
16.08.2022 03:05 21,3 C 21,2 C 21,3 C 74 % 1007,6 hPa 0,0 l/m 4,8 km/h (1 Bft) S 180 0 min 0,0 UV-I 0 W/m 8,0 km/h (2 Bft)
16.08.2022 03:00 21,2 C 21,0 C 21,2 C 75 % 1007,6 hPa 0,0 l/m 4,8 km/h (1 Bft) S 180 0 min 0,0 UV-I 0 W/m 11,3 km/h (2 Bft)
16.08.2022 02:55 21,1 C 20,9 C 21,1 C 75 % 1007,6 hPa 0,0 l/m 4,8 km/h (1 Bft) S-SW 202 0 min 0,0 UV-I 0 W/m 8,0 km/h (2 Bft)
16.08.2022 02:50 21,0 C 20,9 C 21,0 C 75 % 1007,6 hPa 0,0 l/m 4,8 km/h (1 Bft) S 180 0 min 0,0 UV-I 0 W/m 9,7 km/h (2 Bft)
16.08.2022 02:45 20,9 C 20,8 C 20,9 C 75 % 1007,7 hPa 0,0 l/m 4,8 km/h (1 Bft) S-SO 157 0 min 0,0 UV-I 0 W/m 9,7 km/h (2 Bft)
16.08.2022 02:40 20,8 C 20,8 C 20,9 C 76 % 1007,7 hPa 0,0 l/m 1,6 km/h (1 Bft) SO 135 0 min 0,0 UV-I 0 W/m 4,8 km/h (1 Bft)
16.08.2022 02:35 20,8 C 20,8 C 20,9 C 76 % 1007,7 hPa 0,0 l/m 1,6 km/h (1 Bft) SO 135 0 min 0,0 UV-I 0 W/m 6,4 km/h (2 Bft)
16.08.2022 02:30 20,9 C 20,9 C 21,0 C 76 % 1007,7 hPa 0,0 l/m 0,0 km/h (0 Bft) SO 135 0 min 0,0 UV-I 0 W/m 4,8 km/h (1 Bft)
16.08.2022 02:25 21,0 C 20,9 C 21,1 C 75 % 1007,7 hPa 0,0 l/m 1,6 km/h (1 Bft) O-SO 112 0 min 0,0 UV-I 0 W/m 4,8 km/h (1 Bft)
16.08.2022 02:20 21,1 C 21,0 C 21,1 C 75 % 1007,6 hPa 0,0 l/m 1,6 km/h (1 Bft) O-SO 112 0 min 0,0 UV-I 0 W/m 4,8 km/h (1 Bft)
16.08.2022 02:15 21,1 C 21,1 C 21,1 C 75 % 1007,5 hPa 0,0 l/m 0,0 km/h (0 Bft) S-SO 157 0 min 0,0 UV-I 0 W/m 3,2 km/h (1 Bft)
16.08.2022 02:10 21,1 C 21,1 C 21,1 C 75 % 1007,5 hPa 0,0 l/m 1,6 km/h (1 Bft) S-SO 157 0 min 0,0 UV-I 0 W/m 6,4 km/h (2 Bft)
16.08.2022 02:05 21,1 C 21,1 C 21,2 C 75 % 1007,5 hPa 0,0 l/m 1,6 km/h (1 Bft) S-SO 157 0 min 0,0 UV-I 0 W/m 6,4 km/h (2 Bft)
16.08.2022 02:00 21,2 C 21,1 C 21,2 C 74 % 1007,5 hPa 0,0 l/m 0,0 km/h (0 Bft) S-SO 157 0 min 0,0 UV-I 0 W/m 4,8 km/h (1 Bft)
16.08.2022 01:55 21,2 C 21,2 C 21,2 C 74 % 1007,4 hPa 0,0 l/m 3,2 km/h (1 Bft) S-SO 157 0 min 0,0 UV-I 0 W/m 8,0 km/h (2 Bft)
16.08.2022 01:50 21,2 C 21,2 C 21,2 C 74 % 1007,3 hPa 0,0 l/m 3,2 km/h (1 Bft) S-SO 157 0 min 0,0 UV-I 0 W/m 6,4 km/h (2 Bft)
16.08.2022 01:45 21,2 C 21,2 C 21,3 C 74 % 1007,3 hPa 0,0 l/m 3,2 km/h (1 Bft) S-SO 157 0 min 0,0 UV-I 0 W/m 8,0 km/h (2 Bft)
16.08.2022 01:40 21,3 C 21,3 C 21,3 C 74 % 1007,3 hPa 0,0 l/m 0,0 km/h (0 Bft) N 0 0 min 0,0 UV-I 0 W/m 0,0 km/h (0 Bft)
16.08.2022 01:35 21,3 C 21,3 C 21,4 C 74 % 1007,3 hPa 0,0 l/m 0,0 km/h (0 Bft) N 0 0 min 0,0 UV-I 0 W/m 0,0 km/h (0 Bft)
16.08.2022 01:30 21,4 C 21,4 C 21,5 C 73 % 1007,2 hPa 0,0 l/m 0,0 km/h (0 Bft) N 0 0 min 0,0 UV-I 0 W/m 0,0 km/h (0 Bft)
16.08.2022 01:25 21,5 C 21,5 C 21,6 C 73 % 1007,3 hPa 0,0 l/m 0,0 km/h (0 Bft) N 0 0 min 0,0 UV-I 0 W/m 0,0 km/h (0 Bft)
16.08.2022 01:20 21,6 C 21,6 C 21,7 C 72 % 1007,3 hPa 0,0 l/m 0,0 km/h (0 Bft) N 0 0 min 0,0 UV-I 0 W/m 0,0 km/h (0 Bft)
16.08.2022 01:15 21,7 C 21,7 C 21,8 C 72 % 1007,4 hPa 0,0 l/m 0,0 km/h (0 Bft) N 0 0 min 0,0 UV-I 0 W/m 0,0 km/h (0 Bft)
16.08.2022 01:10 21,8 C 21,8 C 21,8 C 72 % 1007,4 hPa 0,0 l/m 0,0 km/h (0 Bft) N 0 0 min 0,0 UV-I 0 W/m 0,0 km/h (0 Bft)
16.08.2022 01:05 21,8 C 21,8 C 21,9 C 72 % 1007,5 hPa 0,0 l/m 0,0 km/h (0 Bft) N 0 0 min 0,0 UV-I 0 W/m 0,0 km/h (0 Bft)
16.08.2022 01:00 21,9 C 21,9 C 21,9 C 72 % 1007,5 hPa 0,0 l/m 0,0 km/h (0 Bft) N 0 0 min 0,0 UV-I 0 W/m 0,0 km/h (0 Bft)
16.08.2022 00:55 21,9 C 21,9 C 22,1 C 72 % 1007,5 hPa 0,0 l/m 0,0 km/h (0 Bft) N 0 0 min 0,0 UV-I 0 W/m 0,0 km/h (0 Bft)
16.08.2022 00:50 22,0 C 22,0 C 22,1 C 71 % 1007,5 hPa 0,0 l/m 0,0 km/h (0 Bft) N 0 0 min 0,0 UV-I 0 W/m 0,0 km/h (0 Bft)
16.08.2022 00:45 22,1 C 22,1 C 22,1 C 71 % 1007,4 hPa 0,0 l/m 0,0 km/h (0 Bft) N 0 0 min 0,0 UV-I 0 W/m 0,0 km/h (0 Bft)
16.08.2022 00:40 22,1 C 22,1 C 22,2 C 70 % 1007,4 hPa 0,0 l/m 0,0 km/h (0 Bft) N 0 0 min 0,0 UV-I 0 W/m 0,0 km/h (0 Bft)
16.08.2022 00:35 22,1 C 22,1 C 22,2 C 70 % 1007,3 hPa 0,0 l/m 0,0 km/h (0 Bft) N 0 0 min 0,0 UV-I 0 W/m 0,0 km/h (0 Bft)
16.08.2022 00:30 22,2 C 22,2 C 22,2 C 70 % 1007,4 hPa 0,0 l/m 0,0 km/h (0 Bft) N 0 0 min 0,0 UV-I 0 W/m 0,0 km/h (0 Bft)
16.08.2022 00:25 22,2 C 22,2 C 22,2 C 70 % 1007,5 hPa 0,0 l/m 0,0 km/h (0 Bft) N 0 0 min 0,0 UV-I 0 W/m 0,0 km/h (0 Bft)
16.08.2022 00:20 22,2 C 22,2 C 22,2 C 70 % 1007,4 hPa 0,0 l/m 0,0 km/h (0 Bft) N 0 0 min 0,0 UV-I 0 W/m 0,0 km/h (0 Bft)
16.08.2022 00:15 22,2 C 22,2 C 22,3 C 70 % 1007,4 hPa 0,0 l/m 0,0 km/h (0 Bft) N 0 0 min 0,0 UV-I 0 W/m 0,0 km/h (0 Bft)
16.08.2022 00:10 22,3 C 22,2 C 22,3 C 70 % 1007,4 hPa 0,0 l/m 0,0 km/h (0 Bft) N 0 0 min 0,0 UV-I 0 W/m 0,0 km/h (0 Bft)
16.08.2022 00:05 22,3 C 22,3 C 22,3 C 70 % 1007,4 hPa 0,0 l/m 0,0 km/h (0 Bft) N 0 0 min 0,0 UV-I 0 W/m 0,0 km/h (0 Bft)
16.08.2022 00:00 22,3 C 22,3 C 22,3 C 70 % 1007,3 hPa 0,0 l/m 0,0 km/h (0 Bft) N 0 0 min 0,0 UV-I 0 W/m 0,0 km/h (0 Bft)
_ Min-Zeit 06:30 06:30 06:40 00:00 01:30 - 00:00 - - - - - 00:00
Minimum _ 19,2 C 19,2 C 19,2 C 70 % 1007,2 hPa - 0,0 km/h (0 Bft) - - - - - 0,0 km/h (0 Bft)
_ Max-Zeit 00:00 00:00 00:00 06:25 07:05 00:00 06:50 - - 00:00 00:00 07:10 04:35
Maximum _ 22,3 C 22,3 C 22,3 C 81 % 1008,4 hPa 0,0 l/m 8,0 km/h
S-SO (2 Bft)
- - 0 min 0,0 UV-I 21 W/m 12,9 km/h
S-SW (3 Bft)
Durchschnitt _ 20,8 C 20,7 C 20,8 C 75 % 1007,7 hPa #0,0 l/m 3,2 km/h (1 Bft) S-SO - #0 min. 0,0 UV-I 13 W/m 6,9 km/h (2 Bft)